FW9403 Weather Reports


time (UTC)temp
F
wind
direction
speed
knots
gust
knots
rain 1hr
in
rain 24hr
in
rain mn
in
humidity
%
barometer
mb
20260906012129 79 352 0.0 0.0 0.00 0.24 0.24 99 1013.0
20260906011624 79 351 0.0 0.0 0.00 0.24 0.24 99 1013.1
20260906011125 79 353 0.0 0.9 0.00 0.24 0.24 99 1013.1
20260906010620 79 0 0.0 0.0 0.00 0.24 0.24 99 1013.0
20260906010116 79 352 0.0 0.0 0.00 0.24 0.24 99 1013.1
20260906005615 79 352 0.0 0.0 0.00 0.24 0.24 98 1013.0
20260906005114 80 352 0.0 0.0 0.00 0.24 0.24 98 1013.0
20260906004614 80 352 0.0 0.0 0.00 0.24 0.24 98 1013.1
20260906004109 80 345 0.9 0.9 0.00 0.24 0.24 97 1013.1
20260906003604 80 352 0.0 0.0 0.00 0.24 0.24 97 1012.9
20260906003100 80 345 0.0 0.0 0.00 0.24 0.24 97 1013.0
20260906002555 81 340 0.9 1.7 0.00 0.24 0.24 96 1012.7
20260906002049 81 355 0.0 0.9 0.00 0.24 0.24 95 1012.9
20260906001544 82 333 0.9 0.9 0.00 0.24 0.24 94 1013.0
20260906001039 82 350 0.0 0.0 0.00 0.24 0.24 94 1013.0
20260906000535 82 350 0.0 0.0 0.00 0.24 0.24 93 1013.0
20260906000030 82 349 0.0 0.0 0.00 0.24 0.24 93 1012.9
20260905235524 82 349 0.0 0.0 0.00 0.24 0.24 93 1012.9
20260905235019 83 350 0.0 0.9 0.00 0.24 0.24 92 1012.9
20260905234514 83 344 0.9 1.7 0.00 0.24 0.24 91 1013.0
20260905234009 83 323 0.9 0.9 0.00 0.24 0.24 91 1012.9
20260905233504 84 351 0.0 0.0 0.00 0.24 0.24 90 1013.0
20260905233003 84 353 0.0 0.9 0.00 0.24 0.24 90 1012.8
20260905232459 84 345 0.0 0.9 0.00 0.24 0.24 89 1012.8
20260905231954 84 342 0.0 0.9 0.00 0.24 0.24 90 1012.8
20260905231450 85 341 0.0 0.9 0.00 0.24 0.24 89 1012.8
20260905230946 85 340 0.0 0.9 0.00 0.24 0.24 88 1012.9
20260905230445 86 328 0.9 0.9 0.00 0.24 0.24 87 1012.8
20260905225943 86 345 0.0 0.0 0.00 0.24 0.24 87 1012.7
20260905225438 86 345 0.0 0.0 0.00 0.24 0.24 87 1012.7
20260905224933 86 339 0.0 0.0 0.00 0.24 0.24 87 1012.7
20260905224429 86 339 0.0 0.0 0.00 0.24 0.24 86 1012.7
20260905223928 86 338 0.0 0.0 0.00 0.24 0.24 86 1012.8
20260905223426 86 337 0.0 0.0 0.00 0.24 0.24 86 1012.7
20260905222921 86 336 0.0 0.0 0.00 0.24 0.24 84 1012.8
20260905222420 87 329 0.9 1.7 0.00 0.24 0.24 82 1013.3
20260905221916 88 319 0.0 1.7 0.00 0.24 0.24 80 1013.2
20260905221413 87 322 0.0 0.9 0.00 0.24 0.24 81 1012.9
20260905220909 87 322 0.0 0.0 0.00 0.24 0.24 81 1013.2
20260905220404 88 321 0.9 0.9 0.00 0.24 0.24 78 1013.1
20260905215903 88 328 0.0 0.9 0.00 0.24 0.24 78 1013.3
20260905215359 88 312 0.9 1.7 0.00 0.24 0.24 76 1013.3
20260905214855 88 303 0.9 1.7 0.00 0.24 0.24 79 1013.3
20260905214351 88 282 1.7 2.6 0.00 0.24 0.24 79 1013.1
20260905213845 89 308 1.7 1.7 0.00 0.24 0.24 79 1013.2
20260905213342 88 327 0.9 0.9 0.00 0.24 0.24 79 1013.4
20260905212842 88 251 0.9 1.7 0.00 0.24 0.24 78 1013.4
20260905212336 89 326 0.0 1.7 0.00 0.24 0.24 75 1013.3
20260905211836 88 327 0.0 0.9 0.00 0.24 0.24 78 1013.3
20260905211332 88 282 0.9 1.7 0.00 0.24 0.24 79 1013.5
20260905210828 89 95 0.9 1.7 0.00 0.24 0.24 74 1013.6
20260905210328 87 344 0.9 2.6 0.00 0.24 0.24 80 1013.6
20260905205827 84 344 0.0 0.9 0.00 0.24 0.24 87 1013.4
20260905205321 84 33 0.9 1.7 0.00 0.24 0.24 88 1013.3
20260905204821 84 273 0.9 0.9 0.00 0.24 0.24 89 1013.3
20260905204317 84 299 0.0 1.7 0.00 0.24 0.24 90 1013.5
20260905203815 82 332 0.9 1.7 0.00 0.24 0.24 94 1013.6
20260905203311 81 300 0.9 1.7 0.00 0.24 0.24 98 1013.4
20260905202801 81 175 2.6 2.6 0.00 0.24 0.24 99 1013.4
20260905202256 80 338 0.0 0.9 0.00 0.24 0.24 99 1013.6
20260905201752 79 277 2.6 4.3 0.00 0.24 0.24 99 1013.4
20260905201247 79 272 2.6 2.6 0.05 0.24 0.24 99 1013.7
20260905200742 79 330 0.9 0.9 0.17 0.24 0.24 99 1013.9
20260905200238 79 337 0.9 1.7 0.42 0.24 0.24 99 1014.0
20260905195735 79 336 0.9 0.9 0.92 0.20 0.20 98 1014.1
20260905195230 80 353 0.0 2.6 0.92 0.17 0.17 97 1014.2
20260905194726 80 273 2.6 2.6 0.31 0.05 0.05 95 1014.3
20260905194225 80 346 0.0 0.9 0.07 0.01 0.01 93 1014.0
20260905193725 81 10 0.0 1.7 0.00 0.00 0.00 91 1014.4
20260905193220 81 76 2.6 5.2 0.00 0.00 0.00 89 1014.2
20260905192716 82 95 4.3 6.1 0.00 0.00 0.00 91 1014.5
20260905192212 83 65 4.3 7.0 0.00 0.00 0.00 88 1014.5
20260905191711 84 23 1.7 2.6 0.00 0.00 0.00 87 1014.4
20260905191209 87 13 4.3 6.1 0.00 0.00 0.00 80 1014.3
20260905190708 90 28 0.9 5.2 0.00 0.00 0.00 77 1014.1
20260905190207 90 0 2.6 5.2 0.00 0.00 0.00 78 1014.1
20260905185706 90 349 1.7 6.1 0.00 0.00 0.00 75 1014.4
20260905185201 91 329 1.7 2.6 0.00 0.00 0.00 75 1014.3
20260905184700 90 285 1.7 1.7 0.00 0.00 0.00 75 1014.3
20260905184159 90 215 3.5 6.1 0.00 0.00 0.00 75 1014.6
20260905183654 89 181 2.6 2.6 0.00 0.00 0.00 76 1014.6
20260905183149 90 245 0.0 2.6 0.00 0.00 0.00 80 1014.7
20260905182648 89 277 1.7 2.6 0.00 0.00 0.00 79 1014.8
20260905182143 88 302 1.7 4.3 0.00 0.00 0.00 82 1014.8
20260905181638 86 48 0.9 1.7 0.00 0.00 0.00 84 1014.8
20260905181137 87 271 3.5 5.2 0.00 0.00 0.00 82 1015.0
20260905180632 90 268 4.3 5.2 0.00 0.00 0.00 77 1014.8
20260905180127 91 340 0.0 0.9 0.00 0.00 0.00 69 1015.0
20260905175626 92 340 0.9 0.9 0.00 0.00 0.00 69 1014.9
20260905175122 92 354 0.0 0.9 0.00 0.00 0.00 71 1015.0
20260905174617 91 156 1.7 1.7 0.00 0.00 0.00 73 1014.9
20260905174113 89 95 1.7 1.7 0.00 0.00 0.00 79 1015.1
20260905173609 88 345 0.0 0.0 0.00 0.00 0.00 79 1014.9
20260905173104 88 3 0.0 0.0 0.00 0.00 0.00 80 1014.9
20260905172603 87 2 0.0 0.9 0.00 0.00 0.00 79 1015.1
20260905172058 87 348 0.9 1.7 0.00 0.00 0.00 82 1015.3
20260905171555 87 347 0.0 0.9 0.00 0.00 0.00 82 1015.1
20260905171050 87 330 0.9 1.7 0.00 0.00 0.00 81 1015.5
20260905170547 87 341 1.7 2.6 0.00 0.00 0.00 82 1015.2
20260905170042 88 339 0.9 1.7 0.00 0.00 0.00 81 1015.2
20260905165537 91 339 1.7 2.6 0.00 0.00 0.00 77 1015.3
20260905165032 90 335 1.7 2.6 0.00 0.00 0.00 76 1015.2
20260905164526 90 348 0.0 1.7 0.00 0.00 0.00 73 1015.4
20260905164021 91 302 1.7 2.6 0.00 0.00 0.00 72 1015.3
20260905163517 91 358 0.9 1.7 0.00 0.00 0.00 71 1015.4
20260905163013 91 302 1.7 1.7 0.00 0.00 0.00 72 1015.4
20260905162508 90 359 0.9 2.6 0.00 0.00 0.00 77 1015.4
20260905162003 90 1 0.9 1.7 0.00 0.00 0.00 75 1015.5
20260905161502 89 345 0.9 2.6 0.00 0.00 0.00 74 1015.4
20260905161000 89 349 1.7 4.3 0.00 0.00 0.00 76 1015.5
20260905160459 88 345 1.7 1.7 0.00 0.00 0.00 75 1015.9
20260905155954 88 337 0.9 2.6 0.00 0.00 0.00 77 1015.6
20260905155449 87 334 0.9 2.6 0.00 0.00 0.00 83 1015.5
20260905154947 87 327 0.9 1.7 0.00 0.00 0.00 83 1015.8
20260905154443 87 341 0.0 0.9 0.00 0.00 0.00 84 1015.5
20260905153938 87 317 0.9 1.7 0.00 0.00 0.00 81 1015.6
20260905153434 88 334 0.0 1.7 0.00 0.00 0.00 80 1015.6
20260905152934 89 298 0.9 1.7 0.00 0.00 0.00 78 1015.5
20260905152434 89 304 1.7 1.7 0.00 0.00 0.00 76 1015.7
20260905151928 89 81 1.7 2.6 0.00 0.00 0.00 76 1015.5
20260905151424 87 21 1.7 1.7 0.00 0.00 0.00 80 1015.6
20260905150919 86 336 0.9 0.9 0.00 0.00 0.00 85 1015.6
20260905150419 87 307 1.7 1.7 0.00 0.00 0.00 83 1015.4
20260905145915 88 7 0.0 1.7 0.00 0.00 0.00 83 1015.3
20260905145410 88 354 0.0 0.0 0.00 0.00 0.00 82 1015.4
20260905144910 86 25 0.0 0.9 0.00 0.00 0.00 86 1015.4
20260905144405 85 346 0.0 0.9 0.00 0.00 0.00 88 1015.4
20260905143904 85 349 0.0 0.0 0.00 0.00 0.00 90 1015.6
20260905143358 85 347 0.0 0.0 0.00 0.00 0.00 88 1015.5
20260905142858 85 349 0.0 0.0 0.00 0.00 0.00 89 1015.8
20260905142356 85 349 0.0 0.9 0.00 0.00 0.00 90 1015.7
20260905141852 85 336 2.6 2.6 0.00 0.00 0.00 89 1015.4
20260905141347 86 12 0.0 0.9 0.00 0.00 0.00 87 1015.7
20260905140844 87 316 0.9 0.9 0.00 0.00 0.00 86 1015.6
20260905140343 87 308 0.0 1.7 0.00 0.00 0.00 84 1015.5
20260905135842 87 346 0.0 0.9 0.00 0.00 0.00 84 1015.5
20260905135338 86 357 0.9 0.9 0.00 0.00 0.00 88 1015.3
20260905134833 85 18 0.0 0.9 0.00 0.00 0.00 90 1015.5
20260905134326 85 17 0.0 0.9 0.00 0.00 0.00 89 1015.2
20260905133826 85 68 0.9 2.6 0.00 0.00 0.00 91 1015.2
20260905133322 84 68 1.7 1.7 0.00 0.00 0.00 92 1015.6
20260905132821 84 72 1.7 1.7 0.00 0.00 0.00 93 1015.3
20260905132317 83 42 0.9 1.7 0.00 0.00 0.00 94 1015.3
20260905131811 82 64 0.9 1.7 0.00 0.00 0.00 96 1015.4
20260905131307 82 50 1.7 1.7 0.00 0.00 0.00 96 1015.2
20260905130801 82 89 1.7 1.7 0.00 0.00 0.00 96 1015.3
20260905130300 81 40 0.9 1.7 0.00 0.00 0.00 97 1015.2
20260905125756 80 55 0.9 1.7 0.00 0.00 0.00 99 1015.3
20260905125250 80 44 0.9 1.7 0.00 0.00 0.00 99 1015.4
20260905124747 79 90 2.6 2.6 0.00 0.00 0.00 99 1015.0
20260905124243 79 64 2.6 4.3 0.00 0.00 0.00 99 1015.3
20260905123738 79 57 1.7 2.6 0.00 0.00 0.00 99 1015.1
20260905123235 78 95 2.6 2.6 0.00 0.00 0.00 99 1015.2
20260905122735 78 60 1.7 1.7 0.00 0.00 0.00 99 1015.2
20260905122228 77 26 0.0 0.9 0.00 0.00 0.00 99 1015.2
20260905121724 77 57 0.0 1.7 0.00 0.00 0.00 99 1014.9
20260905121220 77 54 1.7 1.7 0.00 0.00 0.00 99 1014.9
20260905120719 76 23 0.0 0.9 0.00 0.00 0.00 99 1014.8
20260905120214 76 24 0.0 0.9 0.00 0.00 0.00 99 1014.9
20260905115714 76 24 0.0 0.0 0.00 0.00 0.00 99 1014.8
20260905115209 76 24 0.9 0.9 0.00 0.00 0.00 99 1014.8
20260905114708 76 30 0.9 0.9 0.00 0.00 0.00 99 1014.8
20260905114206 75 30 0.9 0.9 0.00 0.00 0.00 99 1014.7
20260905113701 75 34 0.9 0.9 0.00 0.00 0.00 99 1014.6
20260905113157 75 34 0.9 0.9 0.00 0.00 0.00 99 1014.5
20260905112656 75 32 0.9 1.7 0.00 0.00 0.00 99 1014.7
20260905112152 75 28 0.9 0.9 0.00 0.00 0.00 99 1014.5
20260905111652 75 27 0.9 0.9 0.00 0.00 0.00 99 1014.4
20260905111151 75 29 0.9 0.9 0.00 0.00 0.00 99 1014.5
20260905110650 75 6 0.0 0.9 0.00 0.00 0.00 99 1014.6
20260905110146 75 357 0.0 0.0 0.00 0.00 0.00 99 1014.4
20260905105641 75 356 0.0 0.9 0.00 0.00 0.00 99 1014.4
20260905105140 75 358 0.0 0.0 0.00 0.00 0.00 99 1014.5
20260905104635 75 3 0.0 0.0 0.00 0.00 0.00 99 1014.4
20260905104130 75 3 0.0 0.0 0.00 0.00 0.00 99 1014.5
20260905103626 75 3 0.0 0.0 0.00 0.00 0.00 99 1014.4
20260905103121 75 4 0.0 0.9 0.00 0.00 0.00 99 1014.4
20260905102617 75 29 0.9 0.9 0.00 0.00 0.00 99 1014.5
20260905102114 75 52 0.9 1.7 0.00 0.00 0.00 99 1014.5
20260905101612 75 10 0.0 0.9 0.00 0.00 0.00 99 1014.4
20260905101110 75 358 0.0 0.0 0.00 0.00 0.00 99 1014.3
20260905100607 75 353 0.9 0.9 0.00 0.00 0.00 99 1014.3
20260905100101 75 356 0.9 0.9 0.00 0.00 0.00 99 1014.5
20260905095555 75 357 0.0 0.0 0.00 0.00 0.00 99 1014.3
20260905095051 75 357 0.0 0.0 0.00 0.00 0.00 99 1014.4
20260905094545 75 357 0.0 0.0 0.00 0.00 0.00 99 1014.4
20260905094045 75 357 0.0 0.0 0.00 0.00 0.00 99 1014.4
20260905093539 75 357 0.0 0.0 0.00 0.00 0.00 99 1014.4
20260905093036 75 356 0.0 0.0 0.00 0.00 0.00 99 1014.3
20260905092535 75 356 0.9 0.9 0.00 0.00 0.00 99 1014.5
20260905092032 76 3 0.0 0.9 0.00 0.00 0.00 99 1014.2
20260905091530 76 17 0.0 0.9 0.00 0.00 0.00 99 1014.2
20260905091025 76 20 0.9 0.9 0.00 0.00 0.00 99 1014.4
20260905090525 76 20 0.9 0.9 0.00 0.00 0.00 99 1014.3
20260905090020 76 20 0.9 0.9 0.00 0.00 0.00 99 1014.1
20260905085519 76 26 0.9 0.9 0.00 0.00 0.00 99 1014.4
20260905085015 76 17 0.9 0.9 0.00 0.00 0.00 99 1014.4
20260905084514 76 1 0.0 0.0 0.00 0.00 0.00 99 1014.3
20260905084009 76 1 0.0 0.0 0.00 0.00 0.00 99 1014.1
20260905083504 76 4 0.0 0.9 0.00 0.00 0.00 99 1014.1
20260905083001 75 11 0.9 0.9 0.00 0.00 0.00 99 1014.2
20260905082456 75 3 0.0 0.0 0.00 0.00 0.00 99 1014.2
20260905081951 75 23 0.0 0.9 0.00 0.00 0.00 99 1014.2
20260905081446 75 29 0.9 0.9 0.00 0.00 0.00 99 1014.1
20260905080945 75 26 0.0 0.9 0.00 0.00 0.00 99 1014.3
20260905080440 75 4 0.0 0.9 0.00 0.00 0.00 99 1014.1
20260905075938 75 26 0.9 0.9 0.00 0.00 0.00 99 1014.2
20260905075433 75 358 0.0 0.0 0.00 0.00 0.00 99 1014.2
20260905074932 76 354 0.0 0.9 0.00 0.00 0.00 99 1014.2
20260905074428 76 352 0.0 0.0 0.00 0.00 0.00 99 1014.4
20260905073924 76 357 0.0 1.7 0.00 0.00 0.00 99 1014.4
20260905073418 75 3 0.0 0.0 0.00 0.00 0.00 99 1014.3
20260905072914 75 11 0.0 0.9 0.00 0.00 0.00 99 1014.3
20260905072409 76 37 0.9 1.7 0.00 0.00 0.00 99 1014.3
20260905071905 76 25 0.9 1.7 0.00 0.00 0.00 99 1014.1
20260905071402 75 2 0.0 0.9 0.00 0.00 0.00 99 1014.0
20260905070901 75 6 0.0 0.9 0.00 0.00 0.00 99 1014.2
20260905070357 76 3 0.0 0.9 0.00 0.00 0.00 99 1014.3
20260905065857 75 6 0.0 0.0 0.00 0.00 0.00 99 1014.2
20260905065355 75 357 0.0 0.0 0.00 0.00 0.00 99 1014.0
20260905064850 75 0 0.0 0.0 0.00 0.00 0.00 99 1014.0
20260905064346 75 355 0.0 0.0 0.00 0.00 0.00 99 1014.1
20260905063844 75 358 0.0 0.0 0.00 0.00 0.00 99 1013.9
20260905063340 75 358 0.0 0.0 0.00 0.00 0.00 99 1013.9
20260905062836 75 1 0.0 0.9 0.00 0.00 0.00 99 1013.8
20260905062330 75 1 0.0 0.0 0.00 0.00 0.00 99 1014.0
20260905061825 75 1 0.0 0.0 0.00 0.00 0.00 99 1014.1
20260905061320 76 1 0.0 0.0 0.00 0.00 0.00 99 1014.2
20260905060814 75 20 0.9 0.9 0.00 0.00 0.00 99 1014.2
20260905060311 76 18 0.0 0.9 0.00 0.00 0.00 99 1014.2
20260905055809 75 27 0.9 0.9 0.00 0.00 0.00 99 1014.2
20260905055306 75 9 0.0 0.0 0.00 0.00 0.00 99 1014.1
20260905054759 75 6 0.0 0.9 0.00 0.00 0.00 99 1014.4
20260905054256 75 22 0.9 1.7 0.00 0.00 0.00 99 1014.1
20260905053755 75 13 0.9 0.9 0.00 0.00 0.00 99 1014.0
20260905053250 75 1 0.0 0.0 0.00 0.00 0.00 99 1014.3
20260905052749 75 357 0.0 0.0 0.00 0.00 0.00 99 1014.4
20260905052244 76 355 0.0 0.0 0.00 0.00 0.00 99 1014.5
20260905051744 76 2 0.0 0.0 0.00 0.00 0.00 99 1014.5
20260905051241 76 1 0.0 0.0 0.00 0.00 0.00 99 1014.5
20260905050737 76 358 0.0 0.0 0.00 0.00 0.00 99 1014.6
20260905050234 76 354 0.0 0.0 0.00 0.00 0.00 99 1014.7
20260905045733 76 353 0.0 0.0 0.00 0.13 0.13 99 1014.7
20260905045229 76 351 0.0 0.0 0.00 0.13 0.13 99 1014.8
20260905044724 76 351 0.0 0.9 0.00 0.13 0.13 99 1014.8
20260905044219 76 341 0.9 0.9 0.00 0.13 0.13 99 1014.8
20260905043718 76 347 0.0 0.0 0.00 0.13 0.13 99 1015.0
20260905043213 76 352 0.0 0.0 0.00 0.13 0.13 99 1014.8
20260905042713 76 358 0.0 0.0 0.00 0.13 0.13 99 1015.2
20260905042212 76 1 0.0 0.0 0.00 0.13 0.13 99 1015.0
20260905041708 76 4 0.0 0.9 0.00 0.13 0.13 99 1015.0
20260905041203 76 5 0.0 0.0 0.00 0.13 0.13 99 1015.1
20260905040658 76 14 0.9 0.9 0.00 0.13 0.13 99 1015.2
20260905040156 76 358 0.0 0.0 0.00 0.13 0.13 99 1015.1
20260905035651 76 355 0.0 0.9 0.00 0.13 0.13 99 1015.3
20260905035148 76 359 0.0 0.0 0.00 0.13 0.13 99 1015.2
20260905034644 76 358 0.0 0.9 0.00 0.13 0.13 99 1015.4
20260905034143 76 357 0.0 0.0 0.00 0.13 0.13 99 1015.5
20260905033642 76 357 0.0 0.0 0.00 0.13 0.13 99 1015.3
20260905033138 77 356 0.0 0.9 0.00 0.13 0.13 99 1015.5
20260905032637 77 357 0.0 0.0 0.00 0.13 0.13 99 1015.4
20260905032132 77 354 0.0 0.0 0.00 0.13 0.13 99 1015.5
20260905031628 77 354 0.0 0.0 0.00 0.13 0.13 99 1015.6
20260905031123 77 356 0.0 0.0 0.00 0.13 0.13 99 1015.4
20260905030618 77 3 0.0 0.9 0.00 0.13 0.13 99 1015.4
20260905030113 77 2 0.0 0.9 0.00 0.13 0.13 99 1015.5
20260905025608 77 4 0.0 0.9 0.00 0.13 0.13 99 1015.4
20260905025104 77 4 0.0 0.9 0.00 0.13 0.13 99 1015.5
20260905024559 77 6 0.0 0.9 0.00 0.13 0.13 99 1015.5
20260905024054 77 65 1.7 2.6 0.00 0.13 0.13 99 1015.5
20260905023549 77 88 1.7 2.6 0.00 0.13 0.13 99 1015.6
20260905023044 77 70 1.7 1.7 0.00 0.13 0.13 99 1015.4
20260905022543 77 19 0.0 0.9 0.00 0.13 0.13 99 1015.4
20260905022039 77 5 0.9 1.7 0.00 0.13 0.13 99 1015.4
20260905021538 77 355 0.0 0.0 0.00 0.13 0.13 99 1015.3
20260905021034 77 344 0.9 0.9 0.00 0.13 0.13 99 1015.5
20260905020533 77 357 0.0 0.9 0.00 0.13 0.13 99 1015.4
20260905020029 77 7 0.9 0.9 0.00 0.13 0.13 99 1015.0
20260905015527 77 356 0.0 0.0 0.00 0.13 0.13 99 1015.2
20260905015022 77 352 0.0 0.9 0.00 0.13 0.13 99 1015.2
20260905014516 77 351 0.0 0.0 0.00 0.13 0.13 99 1015.0
20260905014012 77 352 0.0 0.9 0.00 0.13 0.13 99 1014.8
20260905013508 78 353 0.0 0.9 0.00 0.13 0.13 99 1015.1
20260905013003 78 353 0.9 1.7 0.00 0.13 0.13 99 1015.2
20260905012458 78 351 0.0 0.9 0.00 0.13 0.13 99 1015.1